Location: Unnamed
(25.2826°S, 57.6099°W)
Time: 00:22:03
(UTC-04:00)

Envisat - Pass Details

Date: 19 January 2026
Orbit: 761 x 763 km, 98.4° (Epoch: 18 February)

Event Time Altitude Azimuth Distance (km) Brightness Sun altitude
Exits shadow 00:55:44 13° 143° (SE) 2,094 5.8 -42.5°
Drops below altitude 10° 00:56:39 10° 152° (SSE) 2,313 6.1 -42.4°
Sets 00:59:38 0° 170° (S) 3,247 7.1 -42.2°
